Overview Statistics Trail Chart Weather Telemetry Raw packets
 

This is the latest recevied weather packets stored in our database for station/object SV9TNF-57. If no packets are shown the sender has not sent any weather packets the latest 10 day(s).

<< 96 97 98 99 100 101 102 >>
Time Temp. Humidity Pressure Rain* Wind** Luminosity Snow
1787945791 26.67° C 66% 995.7 hPa 0 mm 12.96 m/s, 287° - -
1787945490 26.67° C 66% 995.6 hPa 0 mm 8.05 m/s, 314° - -
1787945190 26.67° C 66% 995.7 hPa 0 mm 9.83 m/s, 305° - -
1787944890 27.22° C 66% 995.8 hPa 0 mm 8.49 m/s, 281° - -
1787944590 27.22° C 65% 995.8 hPa 0 mm 10.28 m/s, 308° - -
1787944290 27.22° C 64% 995.7 hPa 0 mm 7.15 m/s, 287° - -
1787943990 27.22° C 63% 995.5 hPa 0 mm 6.71 m/s, 2° - -
1787943690 27.22° C 62% 995.7 hPa 0 mm 4.92 m/s, 289° - -
1787943390 27.22° C 63% 995.6 hPa 0 mm 3.58 m/s, 342° - -
1787943089 27.22° C 62% 995.5 hPa 0 mm 4.47 m/s, 329° - -
1787942789 27.22° C 62% 995.3 hPa 0 mm 4.92 m/s, 254° - -
1787942489 27.22° C 61% 995.4 hPa 0 mm 2.68 m/s, 328° - -
1787942189 27.78° C 61% 995.5 hPa 0 mm 1.34 m/s, 293° - -
1787941895 27.78° C 61% 995.3 hPa 0 mm 6.26 m/s, 259° - -
1787941589 27.78° C 61% 995.4 hPa 0 mm 8.49 m/s, 108° - -
1787941289 27.78° C 61% 995.3 hPa 0 mm 0.89 m/s, 243° - -
1787940989 27.78° C 59% 995.2 hPa 0 mm 8.05 m/s, 317° - -
1787940689 27.78° C 60% 995.3 hPa 0 mm 2.68 m/s, 306° - -
1787940388 27.78° C 61% 995.1 hPa 0 mm 0.89 m/s, 329° - -
1787940089 27.78° C 59% 995.3 hPa 0 mm 1.34 m/s, 311° - -
1787939788 27.78° C 59% 995.3 hPa 0 mm 5.81 m/s, 313° - -
1787939488 27.78° C 60% 995.1 hPa 0 mm 2.68 m/s, 259° - -
1787939188 28.33° C 58% 994.8 hPa 0 mm 6.71 m/s, 316° - -
1787938888 28.33° C 56% 995 hPa 0 mm 4.02 m/s, 272° - -
1787938588 28.33° C 53% 994.9 hPa 0 mm 1.79 m/s, 327° - -

* Rain latest hour (hover to see other rain measurements)
** Current wind speed in m/s (hover to see current wind gust speed)